FARADAY_PHOENIX (48924 NORAD) Tracking and Keplerian Element Data

This shows tracking and keplerian element data for the satellite.

Feedback or suggestion? Click here.




ElementValue
Catalog48924
NameFARADAY_PHOENIX
Epoch Orbit1396
Epoch Day269.16090435
Epoch Year2021
RAAN36.7468
Inclination97.5245
Eccentricity0.0017435
Argument of Perigee289.4301
Mean Anonmoly194.1598
Mean Motion15.13366009
Decay Rate1.656E-05
L11 48924U 21059AX 21269.16090435 .00001656 00000-0 96263-4 0 9990
L22 48924 97.5245 36.7468 0017435 289.4301 194.1598 15.13366009 13962

Live tracking and technical data element details for FARADAY_PHOENIX (NORAD 48924). FARADAY_PHOENIX can be tracked NOW for your location showing map with azimuth and elevation plus other details from your city location.

Track the satellite on the map from your city or location and see movement details for azimuth, elevation, latitude, longitude, range, height, and movement on the map or in text.







IsCatalogInMostPopularTable: catalog: 48924, numindb: 14
Update: records affected: 1



GetName: 48924 FARADAY_PHOENIX

Hit Count: updated at: Sun, 26 Sep 2021 15:13:16 GMT